VK3AFQ-13 Weather Reports


time (UTC)temp
C
wind
direction
speed
KPH
gust
KPH
rain 1hr
cm
rain 24hr
cm
rain mn
cm
humidity
%
barometer
mb
20260510051604 20 129 0.0 9.7 0.00 0.00 0.00 67 1028.3
20260510044604 20 129 6.4 6.4 0.00 0.00 0.00 68 1028.1
20260510043104 18 0 0.0 8.0 0.00 0.00 0.00 70 1028.4
20260510041604 18 129 4.8 8.0 0.00 0.00 0.00 71 1028.4
20260510034603 18 129 1.6 9.7 0.00 0.00 0.00 73 1028.5
20260510033103 18 129 4.8 9.7 0.00 0.00 0.00 74 1028.6
20260510031604 17 129 1.6 9.7 0.00 0.00 0.00 75 1028.8
20260510024604 17 129 4.8 11.3 0.00 0.00 0.00 77 1029.0
20260510023104 17 129 1.6 14.5 0.00 0.00 0.00 77 1029.1
20260510021604 17 129 6.4 9.7 0.00 0.00 0.00 78 1029.4
20260510014604 16 129 6.4 14.5 0.00 0.00 0.00 79 1029.8
20260510013104 16 129 3.2 16.1 0.00 0.00 0.00 79 1029.9
20260510011604 16 129 6.4 14.5 0.00 0.00 0.00 80 1030.1
20260510004603 15 129 3.2 12.9 0.00 0.00 0.00 84 1030.3
20260510003103 14 129 6.4 11.3 0.00 0.00 0.00 85 1030.3
20260510001603 14 129 3.2 12.9 0.00 0.00 0.00 86 1030.2
20260509234604 12 129 3.2 12.9 0.00 0.00 0.00 90 1030.1
20260509233104 12 129 4.8 12.9 0.00 0.00 0.00 91 1030.1
20260509231603 11 129 4.8 12.9 0.00 0.00 0.00 93 1030.2
20260509224604 10 129 4.8 8.0 0.00 0.00 0.00 96 1029.9
20260509223104 10 129 1.6 3.2 0.00 0.00 0.00 96 1030.0
20260509221604 9 0 0.0 3.2 0.00 0.00 0.00 96 1029.7
20260509214604 8 0 0.0 0.0 0.00 0.00 0.00 96 1029.4
20260509213104 7 0 0.0 1.6 0.00 0.00 0.00 96 1029.3
20260509211604 7 0 0.0 0.0 0.00 0.00 0.00 95 1029.2
20260509204604 8 0 0.0 0.0 0.00 0.00 0.00 95 1029.0
20260509203104 8 0 0.0 1.6 0.00 0.00 0.00 95 1028.9
20260509201603 8 0 0.0 0.0 0.00 0.00 0.00 95 1028.8
20260509194604 8 0 0.0 1.6 0.00 0.00 0.00 95 1028.4
20260509193104 8 0 0.0 1.6 0.00 0.00 0.00 95 1028.1
20260509191604 8 0 0.0 0.0 0.00 0.00 0.00 95 1028.0
20260509184604 8 0 0.0 1.6 0.00 0.00 0.00 95 1028.0
20260509183103 8 0 0.0 0.0 0.00 0.00 0.00 95 1027.8
20260509181603 8 0 0.0 0.0 0.00 0.00 0.00 95 1027.7
20260509174604 9 0 0.0 1.6 0.00 0.00 0.00 95 1027.4
20260509173103 9 0 0.0 1.6 0.00 0.00 0.00 94 1027.4
20260509171604 9 0 0.0 1.6 0.00 0.00 0.00 94 1027.4
20260509164603 9 0 0.0 1.6 0.00 0.00 0.00 94 1027.5
20260509163106 8 0 0.0 1.6 0.00 0.00 0.00 94 1027.5
20260509161603 8 0 0.0 0.0 0.00 0.00 0.00 94 1027.6
20260509154603 9 0 0.0 0.0 0.00 0.00 0.00 94 1027.6
20260509153103 9 0 0.0 1.6 0.00 0.00 0.00 94 1027.7
20260509151604 8 0 0.0 0.0 0.00 0.00 0.00 94 1027.7
20260509144603 8 0 0.0 1.6 0.00 0.00 0.00 93 1027.8
20260509143103 8 0 0.0 0.0 0.00 0.00 0.00 93 1027.6
20260509141603 8 0 0.0 0.0 0.00 0.00 0.00 92 1027.6
20260509134604 9 0 0.0 0.0 0.00 0.00 0.00 92 1027.6
20260509133104 9 0 0.0 0.0 0.00 0.00 0.00 91 1027.5
20260509131603 10 0 0.0 0.0 0.00 0.00 0.00 91 1027.5
20260509124604 10 0 0.0 0.0 0.00 0.00 0.00 90 1027.6
20260509123103 10 0 0.0 0.0 0.00 0.00 0.00 92 1027.8
20260509121604 10 0 0.0 0.0 0.00 0.00 0.00 91 1027.7
20260509114603 10 0 0.0 0.0 0.00 0.00 0.00 89 1027.8
20260509113104 10 0 0.0 0.0 0.00 0.00 0.00 88 1027.8
20260509111603 11 0 0.0 1.6 0.00 0.00 0.00 88 1027.7
20260509104603 11 0 0.0 0.0 0.00 0.00 0.00 88 1027.6
20260509103103 11 0 0.0 0.0 0.00 0.00 0.00 87 1027.4
20260509101603 11 0 0.0 0.0 0.00 0.00 0.00 87 1027.4
20260509094603 12 0 0.0 0.0 0.00 0.00 0.00 86 1027.3
20260509093104 12 0 0.0 0.0 0.00 0.00 0.00 85 1027.3
20260509091603 12 0 0.0 0.0 0.00 0.00 0.00 84 1027.3
20260509090101 12 0 0.0 0.0 0.00 0.00 0.00 82 1027.2
20260509084603 13 0 0.0 0.0 0.00 0.00 0.00 80 1027.2
20260509083104 14 0 0.0 0.0 0.00 0.00 0.00 78 1027.0
20260509081604 14 0 0.0 0.0 0.00 0.00 0.00 77 1026.8
20260509074603 15 0 0.0 0.0 0.00 0.00 0.00 73 1026.4
20260509073103 16 0 0.0 0.0 0.00 0.00 0.00 70 1026.4
20260509071603 17 0 0.0 0.0 0.00 0.00 0.00 68 1026.4
20260509064604 17 129 1.6 6.4 0.00 0.00 0.00 66 1026.5
20260509063104 17 129 1.6 6.4 0.00 0.00 0.00 65 1026.3
20260509061604 17 129 0.0 6.4 0.00 0.00 0.00 65 1026.2
20260509054603 17 129 3.2 8.0 0.00 0.00 0.00 65 1026.3
20260509053103 18 129 8.0 11.3 0.00 0.00 0.00 64 1026.4